This demonstration page uses our WeatherBlox Daily Observations layout. Learn more.

Left ArrowRight Arrow

Hourly Observations for February 6, 2019

Temp ( °F °C ) Dew Point ( °F °C ) Humidity (%) Winds ( mph kmh ) Pressure ( in mb ) Visibility ( mi km ) Precip ( " mm )
12:52 am 00:52 Cloudy with Light Snow 14 -10 8 -13.3 77 77 N 12 19 30.07 1018 7 11 0.00 0.03
1:30 am 01:30 Cloudy with Light Snow 14 -10 8 -13.3 77 77 N 10 17 30.12 1020 7 11 0.00 0.03
1:52 am 01:52 Cloudy with Light Snow 14 -10 8 -13.3 77 77 NNW 12 19 30.08 1019 7 11 0.00 0.03
2:52 am 02:52 Cloudy with Light Snow 14 -10 8 -13.3 77 77 N 12 19 30.07 1018 9 14 0.00 0.03
3:52 am 03:52 Cloudy with Light Snow 14 -10 6 -14.4 71 71 N 13 20 30.06 1018 9 14 0.00 0.03
4:38 am 04:38 Cloudy with Light Snow 14 -10 7 -13.9 73 73 N 15 24 30.10 1019 9 14 0.00 0.03
4:52 am 04:52 Cloudy with Light Snow 13 -10.6 7 -13.9 77 77 N 13 20 30.04 1017 9 14 0.00 0.03
5:52 am 05:52 Cloudy with Light Snow 14 -10 7 -13.9 73 73 N 13 20 30.05 1018 9 14 0.00 0.03
6:52 am 06:52 Cloudy with Light Snow 14 -10 7 -13.9 73 73 N 12 19 30.05 1018 9 14 0.00 0.03
7:52 am 07:52 Cloudy with Light Snow 14 -10 7 -13.9 73 73 N 10 17 30.08 1019 5 8 0.00 0.03
8:37 am 08:37 Cloudy with Light Snow 14 -10 8 -13.3 77 77 N 9 15 30.14 1021 3 4 0.00 0.03
8:52 am 08:52 Cloudy with Light Snow 14 -10 9 -12.8 80 80 N 9 15 30.09 1019 3 4 0.00 0.03
9:08 am 09:08 Cloudy with Light Snow 14 -10 9 -12.8 80 80 NNW 10 17 30.13 1020 2 2 0.00 0.03
9:52 am 09:52 Cloudy with Light Snow 14 -10 9 -12.8 80 80 NNW 12 19 30.09 1019 2 3 0.00 0.03
10:03 am 10:03 Cloudy with Light Snow 14 -10 9 -12.8 80 80 NNW 10 17 30.14 1021 1 2 0.00 0.03
10:07 am 10:07 Cloudy with Light Snow 14 -10 9 -12.8 80 80 NNW 12 19 30.14 1021 2 3 0.00 0.03
10:52 am 10:52 Cloudy with Light Snow 15 -9.4 10 -12.2 80 80 NNW 13 20 30.09 1019 2 3 0.00 0.03
11:52 am 11:52 Cloudy with Light Snow 15 -9.4 9 -12.8 77 77 NNW 16 26 30.08 1019 3 4 0.00 0.03
12:49 pm 12:49 Cloudy with Light Snow 16 -9 10 -12 79 79 NNW 14 22 30.10 1019 3 5 0.00 0.03
12:52 pm 12:52 Cloudy with Light Snow 15 -9.4 10 -12.2 80 80 NNW 16 26 30.06 1018 3 5 0.00 0.03
1:52 pm 13:52 Cloudy with Light Snow 15 -9.4 9 -12.8 77 77 NNW 15 24 30.06 1018 4 6 0.00 0.03
2:05 pm 14:05 Cloudy with Light Snow 16 -8.9 10 -12.2 77 77 NNW 14 22 30.10 1019 2 3 0.00 0.03
2:52 pm 14:52 Cloudy with Light Snow 16 -8.9 10 -12.2 77 77 N 14 22 30.04 1017 2 3 0.00 0.03
3:52 pm 15:52 Cloudy with Light Snow 15 -9.4 10 -12.2 80 80 N 17 28 30.04 1017 3 5 0.00 0.03
4:39 pm 16:39 Cloudy with Light Snow 15 -9.4 11 -11.7 84 84 NNW 15 24 30.07 1018 4 6 0.00 0.03
4:52 pm 16:52 Cloudy with Light Snow 15 -9.4 10 -12.2 80 80 NNW 17 28 30.04 1017 4 6 0.00 0.03
5:52 pm 17:52 Cloudy with Light Snow 15 -9.4 11 -11.7 84 84 NNW 15 24 30.04 1017 3 5 0.00 0.03
6:52 pm 18:52 Cloudy with Light Snow 13 -10.6 9 -12.8 84 84 NNW 18 30 30.07 1018 3 4 0.00 0.03
7:43 pm 19:43 Cloudy with Light Snow 13 -10.6 9 -12.8 84 84 NNW 14 22 30.16 1021 3 5 0.00 0.03
7:52 pm 19:52 Cloudy with Light Snow 13 -10.6 9 -12.8 84 84 NNW 16 26 30.12 1020 3 5 0.00 0.03
8:52 pm 20:52 Cloudy with Light Snow 12 -11.1 8 -13.3 84 84 NNW 17 28 30.10 1019 3 5 0.00 0.03
9:52 pm 21:52 Cloudy with Light Snow 12 -11.1 7 -13.9 80 80 N 17 28 30.08 1019 4 6 0.00 0.03
10:52 pm 22:52 Cloudy with Light Snow 11 -11.7 7 -13.9 84 84 NNW 14 22 30.07 1018 4 6 0.00 0.03
11:43 pm 23:43 Windy with Snow Likely 11 -11.7 6 -14.4 81 81 N 21 33 30.11 1020 3 4 0.00 0.03
11:52 pm 23:52 Cloudy with Light Snow 11 -11.7 6 -14.4 81 81 NNW 15 24 30.08 1019 2 3 0.00 0.03

Powered by AerisWeather